Weather History for Cadillac, MI

Change the Weather History Date:

Saturday, August 17, 2013

  Actual Average Record
Temperature  
Mean Temperature 64 °F -  
Max Temperature 83 °F 77 °F 93 °F (1955)
Min Temperature 45 °F 53 °F 36 °F (1953)
Degree Days  
Heating Degree Days 1    
Growing Degree Days 14 (Base 50)    
Moisture  
Dew Point 46 °F    
Average Humidity 56    
Maximum Humidity 91    
Minimum Humidity 22    
Precipitation  
Precipitation 0.00 in - - ()
Sea Level Pressure  
Sea Level Pressure 30.23 in    
Wind  
Wind Speed 2 mph (SSW)    
Max Wind Speed 9 mph    
Max Gust Speed -    
Visibility 10 miles    
Events      
Averages and records for this station are not official NWS values.
T = Trace of Precipitation, MM = Missing Value Source: NWS Daily Summary

Daily Weather History Graph

Daily Weather History Graph

Search for Another Location

Airport:

Trip Planner

Search our weather history database for the weather conditions in past years. The results will help you decide how hot, cold, wet, or windy it might be!

Date:

Astronomy

Aug. 17, 2013 Rise Set
Actual Time 6:47 AM EDT 8:42 PM EDT
Civil Twilight 6:16 AM EDT 9:14 PM EDT
Nautical Twilight 5:37 AM EDT 9:52 PM EDT
Astronomical Twilight 4:56 AM EDT 10:33 PM EDT
Moon 6:01 PM EDT (8/17) 2:45 AM EDT (8/17)
Length of Visible Light 14h 57m
Length of Day
13h 55m
Waxing Gibbous, 84% of the Moon is Illuminated
Aug 17
Waxing Gibbous
Aug 20
Full
Aug 28
Last Quarter
Sep 5
New
Sep 12
First Quarter

Hourly Weather History & Observations

Time (EDT) Temp. Dew Point Humidity Pressure Visibility Wind Dir Wind Speed Gust Speed Precip Events Conditions
12:15 AM 55.0 °F 48.7 °F 79% 30.22 in 10.0 mi Calm Calm - N/A   Clear
12:35 AM 54.0 °F 48.2 °F 81% 30.22 in 10.0 mi Calm Calm - N/A   Clear
12:55 AM 52.7 °F 47.8 °F 84% 30.22 in 10.0 mi Calm Calm - N/A   Clear
1:15 AM 52.9 °F 48.4 °F 85% 30.22 in 10.0 mi Calm Calm - N/A   Clear
1:35 AM 51.6 °F 47.5 °F 86% 30.22 in 10.0 mi Calm Calm - N/A   Clear
1:55 AM 51.4 °F 47.5 °F 86% 30.23 in 10.0 mi Calm Calm - N/A   Clear
2:15 AM 51.4 °F 47.7 °F 87% 30.23 in 10.0 mi Calm Calm - N/A   Clear
2:35 AM 51.4 °F 48.2 °F 89% 30.23 in 10.0 mi Calm Calm - N/A   Clear
2:55 AM 51.4 °F 48.4 °F 89% 30.23 in 10.0 mi Calm Calm - N/A   Clear
3:15 AM 51.4 °F 48.4 °F 89% 30.23 in 10.0 mi Calm Calm - N/A   Clear
3:35 AM 49.1 °F 46.0 °F 89% 30.23 in 10.0 mi Calm Calm - N/A   Clear
3:55 AM 49.1 °F 46.0 °F 89% 30.23 in 10.0 mi Calm Calm - N/A   Clear
4:15 AM 49.1 °F 46.4 °F 90% 30.24 in 10.0 mi Calm Calm - N/A   Clear
4:35 AM 49.1 °F 46.4 °F 90% 30.24 in 10.0 mi Calm Calm - N/A   Clear
4:54 AM 48.2 °F 45.3 °F 90% 30.24 in 10.0 mi Calm Calm - N/A   Clear
5:15 AM 49.1 °F 46.2 °F 90% 30.24 in 10.0 mi Calm Calm - N/A   Clear
5:35 AM 46.4 °F 43.7 °F 90% 30.24 in 10.0 mi Calm Calm - N/A   Clear
5:54 AM 47.1 °F 44.6 °F 91% 30.24 in 10.0 mi Calm Calm - N/A   Clear
6:15 AM 45.9 °F 43.0 °F 90% 30.25 in 10.0 mi Calm Calm - N/A   Clear
6:35 AM 45.1 °F 42.4 °F 90% 30.25 in 10.0 mi Calm Calm - N/A   Clear
6:54 AM 45.0 °F 42.4 °F 91% 30.26 in 10.0 mi Calm Calm - N/A   Clear
7:15 AM 45.3 °F 42.4 °F 90% 30.26 in 10.0 mi Calm Calm - N/A   Clear
7:35 AM 49.1 °F 45.5 °F 87% 30.26 in 10.0 mi Calm Calm - N/A   Clear
7:54 AM 51.4 °F 47.3 °F 86% 30.27 in 10.0 mi Calm Calm - N/A   Clear
8:15 AM 54.5 °F 49.5 °F 83% 30.27 in 10.0 mi Calm Calm - N/A   Clear
8:34 AM 57.4 °F 51.1 °F 79% 30.27 in 10.0 mi Calm Calm - N/A   Clear
8:55 AM 62.8 °F 52.9 °F 70% 30.27 in 10.0 mi Calm Calm - N/A   Clear
9:15 AM 66.7 °F 51.3 °F 57% 30.27 in 10.0 mi Calm Calm - N/A   Clear
9:34 AM 71.6 °F 52.7 °F 51% 30.27 in 10.0 mi Calm Calm - N/A   Clear
9:55 AM 71.6 °F 49.8 °F 46% 30.27 in 10.0 mi SW 4.6 mph - N/A   Clear
10:15 AM 76.5 °F 49.8 °F 39% 30.27 in 10.0 mi West 4.6 mph - N/A   Clear
10:35 AM 76.6 °F 51.1 °F 41% 30.27 in 10.0 mi WSW 3.5 mph - N/A   Clear
10:55 AM 76.6 °F 50.5 °F 40% 30.27 in 10.0 mi SW 4.6 mph - N/A   Clear
11:15 AM 76.6 °F 49.3 °F 38% 30.27 in 10.0 mi SSW 5.8 mph - N/A   Clear
11:35 AM 78.1 °F 48.2 °F 35% 30.28 in 10.0 mi SSW 5.8 mph - N/A   Clear
11:55 AM 79.2 °F 47.1 °F 32% 30.27 in 10.0 mi WSW 3.5 mph - N/A   Clear
12:15 PM 76.8 °F 47.1 °F 35% 30.27 in 10.0 mi SSW 4.6 mph - N/A   Clear
12:35 PM 79.2 °F 45.7 °F 31% 30.26 in 10.0 mi SSW 3.5 mph - N/A   Clear
12:55 PM 79.2 °F 45.7 °F 31% 30.26 in 10.0 mi SW 3.5 mph - N/A   Clear
1:14 PM 81.7 °F 44.1 °F 26% 30.25 in 10.0 mi West 6.9 mph - N/A   Scattered Clouds
1:35 PM 79.5 °F 43.2 °F 27% 30.25 in 10.0 mi Calm Calm - N/A   Scattered Clouds
1:55 PM 80.4 °F 45.1 °F 29% 30.24 in 10.0 mi SSW 4.6 mph - N/A   Mostly Cloudy
2:15 PM 81.1 °F 44.6 °F 28% 30.24 in 10.0 mi SW 6.9 mph - N/A   Mostly Cloudy
2:35 PM 81.7 °F 43.3 °F 26% 30.23 in 10.0 mi South 9.2 mph - N/A   Scattered Clouds
2:55 PM 82.8 °F 39.9 °F 22% 30.23 in 10.0 mi SSE 6.9 mph - N/A   Scattered Clouds
3:15 PM 81.9 °F 40.3 °F 23% 30.23 in 10.0 mi SSE 9.2 mph - N/A   Scattered Clouds
3:35 PM 82.0 °F 41.2 °F 23% 30.22 in 10.0 mi South 6.9 mph - N/A   Clear
3:55 PM 81.7 °F 42.1 °F 25% 30.22 in 10.0 mi SW 3.5 mph - N/A   Clear
4:15 PM 81.7 °F 41.0 °F 24% 30.21 in 10.0 mi East 3.5 mph - N/A   Clear
4:35 PM 82.4 °F 40.3 °F 22% 30.21 in 10.0 mi SSW 8.1 mph - N/A   Clear
4:55 PM 82.2 °F 41.0 °F 23% 30.21 in 10.0 mi SW 4.6 mph - N/A   Clear
5:15 PM 83.3 °F 40.5 °F 22% 30.20 in 10.0 mi West 6.9 mph - N/A   Clear
5:35 PM 81.7 °F 41.5 °F 24% 30.20 in 10.0 mi WSW 4.6 mph - N/A   Clear
5:54 PM 81.7 °F 41.9 °F 24% 30.20 in 10.0 mi SW 6.9 mph - N/A   Scattered Clouds
6:15 PM 81.1 °F 43.2 °F 26% 30.20 in 10.0 mi South 5.8 mph - N/A   Scattered Clouds
6:35 PM 79.2 °F 42.1 °F 27% 30.20 in 10.0 mi Calm Calm - N/A   Clear
6:54 PM 81.1 °F 43.5 °F 26% 30.20 in 10.0 mi SSW 4.6 mph - N/A   Clear
7:15 PM 79.2 °F 43.2 °F 28% 30.20 in 10.0 mi South 4.6 mph - N/A   Scattered Clouds
7:35 PM 79.2 °F 43.7 °F 28% 30.20 in 10.0 mi South 5.8 mph - N/A   Clear
7:54 PM 79.2 °F 45.1 °F 30% 30.19 in 10.0 mi South 5.8 mph - N/A   Clear
8:15 PM 76.6 °F 46.2 °F 34% 30.20 in 10.0 mi South 3.5 mph - N/A   Clear
8:35 PM 76.6 °F 48.6 °F 37% 30.20 in 10.0 mi Calm Calm - N/A   Clear
8:54 PM 71.6 °F 48.2 °F 43% 30.21 in 10.0 mi NW 6.9 mph - N/A   Clear
9:15 PM 71.6 °F 49.8 °F 46% 30.21 in 10.0 mi WNW 3.5 mph - N/A   Clear
9:35 PM 69.1 °F 47.3 °F 46% 30.22 in 10.0 mi Calm Calm - N/A   Clear
9:54 PM 67.5 °F 47.7 °F 49% 30.22 in 10.0 mi Calm Calm - N/A   Clear
10:15 PM 64.0 °F 47.5 °F 55% 30.23 in 10.0 mi Calm Calm - N/A   Clear
10:35 PM 61.7 °F 47.3 °F 59% 30.22 in 10.0 mi Calm Calm - N/A   Clear
10:54 PM 59.0 °F 47.7 °F 66% 30.22 in 10.0 mi Calm Calm - N/A   Clear
11:15 PM 57.2 °F 47.7 °F 70% 30.22 in 10.0 mi Calm Calm - N/A   Clear
11:35 PM 56.5 °F 47.3 °F 71% 30.22 in 10.0 mi Calm Calm - N/A   Clear
11:55 PM 56.5 °F 48.4 °F 74% 30.22 in 10.0 mi Calm Calm - N/A   Clear